Flag for Canada Weather past 2 weeks in Resolute Bay, Nunavut Territory, Canada

Now
-29 °F

Light snow. Partly sunny.


Feels Like: -29 °F
Forecast: -35 / -27 °F
Wind: 2 mph from Southwest

Location: Resolute

Current Time: Jan 27, 2015 at 11:27:27 AM

Latest Report: Jan 27, 2015 at 11:00 AM


Visibility: 15 mi

Pressure: 29.50 "Hg

Humidity: 67%

Dew point: -36 °F

Location of Resolute BayLocation

Historic Weather in Resolute Bay — Graph

°F

Resolute Bay temperature yesterday

Maximum temperature yesterday: -22 °F (at 4:00 PM)
Minimum temperature yesterday: -36 °F (at 11:00 PM)
Average temperature yesterday: -29 °F

Past Weeks' High & Low Weather Summary

 TemperatureHumidityPressure
High-13 °F (Jan 13, 1:00 PM)76% (Jan 13, 12:00 AM)30.14 "Hg (Jan 13, 12:00 AM)
Low-36 °F (Jan 22, 3:00 PM)37% (Jan 22, 4:00 PM)29.36 "Hg (Jan 12, 10:00 AM)
Average-28 °F70%29.79 "Hg
* Reported Jan 12 10:00 AM — Jan 27 10:00 AM, Resolute Bay, Weather by CustomWeather, © 2014

Note: Actual official high and low records may vary slightly from our data, if they occured in-between our weather recording intervals... More about our weather records

Advertising

Resolute Bay weather history for previous 24 hours

 ConditionsComfort  
Time TempWeatherWind HumidityBarometerVisibility
10:00 AM
Jan 27
-31 °FLight snow. Partly sunny.2 mph74%29.48 "Hg15 mi
9:55 AM-31 °FLight snow. Partly sunny.2 mph74%29.48 "Hg15 mi
9:00 AM-29 °FSnow flurries. Passing clouds.2 mph67%29.47 "Hg15 mi
8:00 AM-33 °FSnow flurries. Passing clouds.2 mph74%29.47 "Hg15 mi
7:00 AM-33 °FSnow flurries. Partly sunny.No wind66%29.46 "Hg15 mi
6:00 AM-31 °FSnow flurries. Partly sunny.No wind67%29.48 "Hg15 mi
5:00 AM-33 °FSnow flurries. Passing clouds.2 mph66%29.48 "Hg15 mi
4:00 AM-33 °FSnow flurries. Passing clouds.No wind66%29.47 "Hg15 mi
3:00 AM-33 °FSnow flurries. Passing clouds.No wind66%29.47 "Hg15 mi
2:00 AM-33 °FSnow flurries. Passing clouds.2 mph66%29.47 "Hg15 mi
1:00 AM-33 °FSnow flurries. Clear.6 mph66%29.46 "Hg15 mi
12:00 AM-36 °FSnow flurries. Sunny.6 mph73%29.47 "Hg15 mi
11:00 PM
Jan 26
-36 °FSnow flurries. Clear.7 mph66%29.48 "Hg15 mi
10:00 PM-29 °FSnow flurries. Clear.6 mph74%29.48 "Hg15 mi
9:00 PM-31 °FSnow flurries. Clear.7 mph74%29.49 "Hg15 mi
8:00 PM-29 °FSnow flurries. Clear.8 mph67%29.49 "Hg15 mi
7:00 PM-27 °FPassing clouds.3 mph74%29.51 "Hg15 mi
6:00 PM-26 °FSnow flurries. Passing clouds.6 mph67%29.51 "Hg15 mi
5:00 PM-27 °FSnow flurries. Passing clouds.6 mph67%29.53 "Hg15 mi
4:00 PM-22 °FSnow flurries. Passing clouds.6 mph68%29.53 "Hg15 mi
3:00 PM-29 °FSnow flurries. Passing clouds.6 mph67%29.54 "Hg15 mi
2:00 PM-29 °FSnow flurries. Passing clouds.6 mph67%29.55 "Hg15 mi
1:00 PM-27 °FSnow flurries. Passing clouds.6 mph67%29.56 "Hg15 mi
12:00 PM-31 °FSnow flurries. Passing clouds.6 mph74%29.56 "Hg15 mi
11:00 AM-26 °FLight snow. Scattered clouds.16 mph75%29.57 "Hg7 mi
Weather by CustomWeather, © 2014

See weather overviewHow to use our weather pages